Regional Weather Roundup
Issued by NWS

Home | Current Version | Previous Version | Text Only | Print | Product List | Glossary On
Versions: 1 2 3 4 5 6 7 8 9 10 11 12 13 14 15 16 17 18 19 20 21 22 23 24 25 26 27 28 29 30 31 32 33 34 35 36 37 38 39 40 41 42 43 44 45 46 47 48 49 50
000
ASUS45 KBOU 051207
RWRCO

WEATHER ROUNDUP FOR COLORADO
NATIONAL WEATHER SERVICE DENVER/BOULDER CO
600 AM MDT THU MAY 05 2016

NOTE: "FAIR" INDICATES FEW OR NO CLOUDS BELOW 12000 FEET WITH NO
SIGNIFICANT WEATHER AND/OR OBSTRUCTIONS TO VISIBILITY.

COZ001>005-013-030-031-051300-
...NORTHWEST COLORADO...

CITY           SKY/WX    TMP DP  RH WIND       PRES   REMARKS
CRAIG          FAIR      35  31  85 CALM      30.18S
HAYDEN         FAIR      43  27  52 E16       30.19F
MEEKER         FAIR      38  30  73 NE6       30.19S
MOUNT WERNER   NOT AVBL
STEAMBOAT SPGS FAIR      35  28  75 CALM      30.24S
WALDEN         FAIR      30  21  69 SE3       30.31R
$$

COZ006>008-011-051300-
...WEST CENTRAL VALLEYS...

CITY           SKY/WX    TMP DP  RH WIND       PRES   REMARKS
GRAND JUNCTION FAIR      51  32  48 E9        30.08S
MONTROSE       FAIR      44  28  53 SE7       30.19R
EAGLE          FAIR      36  28  75 S6        30.29S
RIFLE          FAIR      41  32  70 SE5       30.18R
DELTA          NOT AVBL
NUCLA          NOT AVBL
$$

COZ017>023-064>068-051300-
...SOUTHWEST COLORADO...

CITY           SKY/WX    TMP DP  RH WIND       PRES   REMARKS
DURANGO        FAIR      32  28  85 NE5       30.24S WCI  27
CORTEZ         FAIR      40  28  62 CALM      30.15F
PAGOSA SPRINGS FAIR      35  26  70 CALM      30.32S
TELLURIDE      FAIR      42  23  47 SE10      30.36S
WOLF CREEK PAS FAIR      32  14  47 SW14      30.53S WCI  22
$$

COZ009-010-012-014-032>034-037-058>063-051300-
...CENTRAL COLORADO...

CITY           SKY/WX    TMP DP  RH WIND       PRES   REMARKS
ASPEN          FAIR      40  25  55 S6        30.28S
BUENA VISTA    FAIR      35  27  73 NW5       30.33S WCI  31
COPPER MTN     NOT AVBL
BERTHOUD PASS  FAIR      32  21  64 NW22      30.48S WCI  19
COTTONWOOD PAS FAIR      46  21  36 SE3       30.39S
GUNNISON       FAIR      32  25  74 CALM      30.36S
KREMMLING      FAIR      30  25  80 CALM      30.32S
LEADVILLE      FAIR      26  18  71 CALM      30.39S
MONARCH PASS   FAIR      34  21  60 W13       30.59S WCI  25
SALIDA         FAIR      40  29  64 CALM      30.39S
SUNLIGHT       FAIR      41  23  48 CALM      30.45S
WILKERSON PASS FAIR      37  23  56 NW7       30.49R
$$

COZ069>075-051300-
...SAN LUIS VALLEY/SANGRE DE CRISTO MOUNTAINS...

CITY           SKY/WX    TMP DP  RH WIND       PRES   REMARKS
ALAMOSA        FAIR      36  28  73 SE3       30.30R
LA VETA PASS   FAIR      39  19  45 S12G22    30.39S
SAGUACHE       FAIR      32  28  86 N3        30.34R
$$

COZ035-036-038>040-051300-
...NORTHERN COLORADO FRONT RANGE...

CITY           SKY/WX    TMP DP  RH WIND       PRES   REMARKS
DENVER INTL AP MOCLDY    49  32  52 SW13      30.13R
DMNS CITY PARK   N/A     51  32  49 SE7       30.14R
AURORA         FAIR      46  34  61 S7        30.15R
FRONT RANGE AP NOT AVBL
ERIE MUNI ARPT FAIR      38  37  92 S3        30.13S
BOULDER MUN AP FAIR      48  34  57 CALM      30.13S
CENTENNIAL     FAIR      51  30  44 SW7       30.15R
BROOMFIELD     FAIR      50  32  50 N9        30.15R
FORT COLLINS   FAIR      45  36  70 CALM      30.13S
LONGMONT       FAIR      43  35  75 W6        30.15S
$$

COZ041-046-047-076>085-087-088-051300-
...PIKES PEAK/PALMER DIVIDE AND SOUTHERN FOOTHILLS...

CITY           SKY/WX    TMP DP  RH WIND       PRES   REMARKS
COLO. SPRINGS  FAIR      46  33  60 N8        30.19S
A. F. ACADEMY  FAIR      37  32  81 N12       30.20S
SCHRIEVER AFB  NOT AVBL
ELLICOTT       FAIR     N/A N/A N/A NE5       30.17S
FALCON         NOT AVBL
FORT CARSON    FAIR      44  33  65 N8        30.16S
LIMON          FAIR      34  34 100 N7        30.16S WCI  28
MONUMENT HILL  FAIR      41  32  70 S8        30.24R
TRINIDAD       FAIR      44  30  57 W9        30.17R
$$

COZ042>045-048>051-090-091-051300-
...NORTHEAST COLORADO...

CITY           SKY/WX    TMP DP  RH WIND       PRES   REMARKS
GREELEY ARPT   FAIR      41  37  87 NW6       30.12S
AKRON          FAIR      50  39  66 SW13      30.11R
BURLINGTON     FAIR      46  39  76 SW9       30.11F
WRAY           NOT AVBL
STERLING       FAIR      41  37  87 CALM      30.08S
HOLYOKE        NOT AVBL
FORT MORGAN    FAIR      44  39  80 W9        30.12R
$$

COZ086-089-092>099-051300-
...SOUTHEAST COLORADO...

CITY           SKY/WX    TMP DP  RH WIND       PRES   REMARKS
PUEBLO         FAIR      46  37  71 N6        30.12F
LA JUNTA       FAIR      46  39  76 W6        30.09S
LAMAR          FAIR      51  40  65 CALM      30.07S
SPRINGFIELD      N/A     47  38  71 S12       30.11F
$$



USA.gov is the U.S. government's official web portal to all federal, state and local government web resources and services.